Weather Roundup
Issued by NWS Chicago, IL

Home | Current Version | Previous Version | Graphics & Text | Print | Product List | Glossary On
Versions: 1 2 3 4 5 6 7 8 9 10 11 12 13 14 15 16 17 18 19 20 21 22 23 24 25 26 27 28 29 30 31 32 33 34 35 36 37 38 39 40 41 42 43 44 45 46 47 48 49 50
000
NZUS59 KLOT 242209
HRRLOT

CHICAGO AREA WEATHER ROUNDUP
NATIONAL WEATHER SERVICE CHICAGO/ROMEOVILLE IL
500 PM CDT SAT JUN 24 2017

NOTE: "FAIR" INDICATES FEW OR NO CLOUDS BELOW 12,000 FEET WITH NO
SIGNIFICANT WEATHER AND/OR OBSTRUCTIONS TO VISIBILITY.

* THESE STATIONS ARE NOT UNDER NWS QUALITY CONTROL. THEY ALSO MAY NOT
  REPORT WEATHER SUCH AS PRECIPITATION OR FOG.

ILZ005-006-012>014-019>023-242300-
NORTHEAST ILLINOIS

CITY           SKY/WX    TMP DP  RH WIND       PRES   REMARKS
OHARE          MOSUNNY   73  44  35 W13G28    29.99S
MIDWAY         MOSUNNY   73  44  35 W13G28    29.99S
AURORA         SUNNY     73  44  35 W25G37    30.02S
LANSING*       PTSUNNY   74  44  34 W16G25    30.00S
JOLIET*        MOSUNNY   74  44  34 W12G26    30.02S
WAUKEGAN       PTSUNNY   72  47  40 W10G18    29.96F
DUPAGE AIRPORT MOSUNNY   72  45  37 NW21G30   30.00S
WHEELING       MOSUNNY   72  45  37 W17G29    29.99F
MORRIS*        MOSUNNY   73  42  32 NW24G37   30.01S
LEWIS AIRPORT* MOSUNNY   74  40  29 NW24G30   30.01S
NORTHERLY ISL    N/A     72  40  31 W10         N/A
$$

WIZ051-052-058>065-066-070>072-242300-
SOUTHEAST WISCONSIN

CITY           SKY/WX    TMP DP  RH WIND       PRES   REMARKS
MILWAUKEE      MOSUNNY   72  47  40 W20       29.96S
KENOSHA*       PTSUNNY   71  47  42 W21G28    29.97S
RACINE*        PTSUNNY   70  47  43 NW14G20   29.98R
WAUKESHA       PTSUNNY   66  46  48 W14G23    29.98S
WEST BEND      PTSUNNY   66  43  42 W14G22    29.96S
$$

INZ001>003-010>013-019-020-242300-
NORTHWEST INDIANA

CITY           SKY/WX    TMP DP  RH WIND       PRES   REMARKS
GARY*          PTSUNNY   75  39  27 W26       30.00S
MICHIGAN CITY* NOT AVBL
RENSSELAER*    NOT AVBL
VALPARAISO     MOSUNNY   76  46  34 W18G26    30.00R
$$

LMZ740>746-242300-
SOUTHERN LAKE MICHIGAN

STATION/POSITION TIME  SKY/WX   TEMP WIND        PRES    VSBY
                                AIR  DIR/SP/G
                 (UTC)          (F)  (DEG/KT/KT) (MB)    (MI)
HARRISON CRIB    2140            72  280/ 18/ 20   N/A
BURNHAM HARBOR   2200            73                N/A
CALUMET HARBOR   2148            73  230/  9/ 16 1015.1S
BURNS HARBOR     2140            70  280/ 12/ 18 1016.3S
MICHIGAN CITY    2140            70  340/  8/  9   N/A
$$

ABBREVIATIONS USED IN REMARKS
   TC - TEMPERATURE IN CELSIUS
  WCI - WIND CHILL INDEX
   HX - HEAT INDEX
  VSB - VISIBILITY
$$



USA.gov is the U.S. government's official web portal to all federal, state and local government web resources and services.